ASL4BA LYBE-HELX

Flight info

Callsign ASL4BA
Flight time N/A
Altitude 41000
Route TPL DCT VAGEN DCT RAXAD DCT RUGAS UN128 FSK DCT KPC UN139 KUMBI L612 BLT A16 CVO A727 LXR
Aircraft A332/H-SDE3GHIJ2J3J5M1RVWXY/LB2D1

Departure

Time N/A
Airport Belgrade Nikola Tesla Airport (LYBE)

Arrival

Time 2026-04-16 18:06
Airport Luxor International Airport (HELX)
Time Latitude Longitude Altitude Speed Heading
2026-04-16 15:25 42.19971 22.30445 39098 ft 455 kts 157°
2026-04-16 15:26 42.14138 22.33758 39091 ft 456 kts 157°
2026-04-16 15:26 42.08311 22.37057 39093 ft 457 kts 157°
2026-04-16 15:27 42.02428 22.40378 39092 ft 456 kts 157°
2026-04-16 15:27 41.96607 22.43662 39092 ft 457 kts 157°
2026-04-16 15:28 41.90742 22.46961 39093 ft 456 kts 157°
2026-04-16 15:28 41.84900 22.50242 39103 ft 453 kts 157°
2026-04-16 15:29 41.79090 22.53497 39108 ft 453 kts 157°
2026-04-16 15:29 41.73273 22.56751 39098 ft 452 kts 157°
2026-04-16 15:30 41.67474 22.59988 39094 ft 454 kts 157°
2026-04-16 15:30 41.61624 22.63245 39094 ft 456 kts 156°
2026-04-16 15:31 41.55790 22.66492 39079 ft 452 kts 158°
2026-04-16 15:31 41.49979 22.69715 39067 ft 454 kts 157°
2026-04-16 15:32 41.44173 22.72933 39052 ft 453 kts 158°
2026-04-16 15:32 41.38337 22.76157 39052 ft 452 kts 158°
2026-04-16 15:33 41.32564 22.79416 39047 ft 451 kts 153°
2026-04-16 15:33 41.27340 22.83971 39048 ft 452 kts 147°
2026-04-16 15:34 41.22080 22.88568 39042 ft 451 kts 147°
2026-04-16 15:34 41.16845 22.93110 39045 ft 451 kts 147°
2026-04-16 15:35 41.11591 22.97654 39047 ft 451 kts 147°
2026-04-16 15:35 41.06258 23.02049 39052 ft 451 kts 149°
2026-04-16 15:36 41.00915 23.06327 39056 ft 450 kts 149°
2026-04-16 15:36 40.95558 23.10613 39055 ft 451 kts 149°
2026-04-16 15:37 40.90190 23.14901 39052 ft 449 kts 149°
2026-04-16 15:37 40.84784 23.19210 39057 ft 448 kts 149°
2026-04-16 15:38 40.79439 23.23463 39047 ft 448 kts 149°
2026-04-16 15:38 40.74099 23.27704 39042 ft 448 kts 149°
2026-04-16 15:39 40.68735 23.31955 39048 ft 450 kts 149°
2026-04-16 15:39 40.63392 23.36182 39041 ft 449 kts 149°
2026-04-16 15:40 40.58043 23.40406 39044 ft 448 kts 149°
2026-04-16 15:40 40.52744 23.44583 39045 ft 446 kts 149°
2026-04-16 15:41 40.47371 23.48809 39044 ft 447 kts 149°
2026-04-16 15:41 40.42064 23.52977 39038 ft 447 kts 149°
2026-04-16 15:42 40.36749 23.57141 39035 ft 446 kts 149°
2026-04-16 15:42 40.31416 23.61314 39030 ft 446 kts 149°
2026-04-16 15:43 40.26114 23.65453 39026 ft 445 kts 149°
2026-04-16 15:43 40.20805 23.69592 39025 ft 445 kts 149°
2026-04-16 15:44 40.15500 23.73719 39023 ft 444 kts 149°
2026-04-16 15:44 40.10185 23.77847 39029 ft 444 kts 149°
2026-04-16 15:45 40.04887 23.81952 39026 ft 445 kts 149°
2026-04-16 15:45 39.99560 23.86073 39027 ft 443 kts 149°
2026-04-16 15:46 39.94268 23.90161 39020 ft 443 kts 149°
2026-04-16 15:46 39.88996 23.94225 39021 ft 443 kts 149°
2026-04-16 15:47 39.83699 23.98302 39026 ft 443 kts 149°
2026-04-16 15:47 39.78386 24.02382 39020 ft 443 kts 150°
2026-04-16 15:48 39.73109 24.06428 39027 ft 443 kts 149°
2026-04-16 15:48 39.67799 24.10491 39030 ft 442 kts 149°
2026-04-16 15:49 39.62500 24.14541 39028 ft 442 kts 150°
2026-04-16 15:49 39.57232 24.18558 39026 ft 441 kts 149°
2026-04-16 15:50 39.51962 24.22569 39023 ft 441 kts 150°
2026-04-16 15:50 39.46666 24.26593 39018 ft 441 kts 150°
2026-04-16 15:51 39.41408 24.30582 39017 ft 440 kts 150°
2026-04-16 15:51 39.36105 24.34598 39020 ft 442 kts 150°
2026-04-16 15:52 39.30829 24.38583 39015 ft 441 kts 150°
2026-04-16 15:52 39.25514 24.42594 39008 ft 442 kts 150°
2026-04-16 15:53 39.20217 24.46583 38995 ft 441 kts 150°
2026-04-16 15:53 39.14926 24.50562 38992 ft 440 kts 150°
2026-04-16 15:54 39.09668 24.54509 38996 ft 439 kts 150°
2026-04-16 15:54 39.04398 24.58457 38989 ft 440 kts 150°
2026-04-16 15:55 38.99102 24.62418 38993 ft 439 kts 150°
2026-04-16 15:55 38.93853 24.66337 38969 ft 439 kts 150°
2026-04-16 15:56 38.88578 24.70265 39005 ft 441 kts 150°
2026-04-16 15:56 38.83257 24.74226 38989 ft 440 kts 150°
2026-04-16 15:57 38.77965 24.78156 38967 ft 440 kts 150°
2026-04-16 15:57 38.72683 24.82071 38983 ft 441 kts 150°
2026-04-16 15:58 38.67386 24.85996 38978 ft 439 kts 150°
2026-04-16 15:58 38.62101 24.89899 38969 ft 439 kts 150°
2026-04-16 15:59 38.54149 24.95761 38960 ft 440 kts 150°
2026-04-16 15:59 38.48862 24.99651 38957 ft 440 kts 150°
2026-04-16 16:00 38.43557 25.03547 38965 ft 440 kts 150°
2026-04-16 16:00 38.38272 25.07421 38964 ft 440 kts 150°
2026-04-16 16:01 38.32951 25.11316 38968 ft 440 kts 150°
2026-04-16 16:01 38.27662 25.15180 38941 ft 441 kts 150°
2026-04-16 16:02 38.22365 25.19046 38936 ft 441 kts 150°
2026-04-16 16:02 38.17036 25.22925 38916 ft 441 kts 150°
2026-04-16 16:03 38.11721 25.26790 38952 ft 441 kts 150°
2026-04-16 16:03 38.06419 25.30636 38928 ft 441 kts 150°
2026-04-16 16:04 38.01088 25.34500 38915 ft 442 kts 150°
2026-04-16 16:04 37.95772 25.38345 38903 ft 441 kts 150°
2026-04-16 16:05 37.90424 25.42206 38929 ft 441 kts 150°
2026-04-16 16:05 37.85125 25.46028 38914 ft 441 kts 150°
2026-04-16 16:06 37.79787 25.49869 38907 ft 441 kts 151°
2026-04-16 16:06 37.74454 25.53698 38920 ft 441 kts 151°
2026-04-16 16:07 37.69162 25.57495 38915 ft 440 kts 150°
2026-04-16 16:07 37.63819 25.61323 38897 ft 441 kts 151°
2026-04-16 16:08 37.58489 25.65131 38899 ft 442 kts 152°
2026-04-16 16:08 37.53143 25.68947 38886 ft 441 kts 152°
2026-04-16 16:09 37.47820 25.72740 38892 ft 441 kts 152°
2026-04-16 16:09 37.42495 25.76528 38881 ft 441 kts 152°
2026-04-16 16:10 37.37153 25.80318 38889 ft 442 kts 152°
2026-04-16 16:10 37.31811 25.84109 38899 ft 440 kts 152°
2026-04-16 16:11 37.26443 25.87908 38889 ft 442 kts 152°
2026-04-16 16:11 37.21106 25.91681 38886 ft 441 kts 152°
2026-04-16 16:12 37.15756 25.95453 38878 ft 443 kts 152°
2026-04-16 16:12 37.10412 25.99216 38871 ft 442 kts 152°
2026-04-16 16:13 37.05075 26.02971 38882 ft 441 kts 153°
2026-04-16 16:13 36.99708 26.06735 38858 ft 441 kts 152°
2026-04-16 16:14 36.94346 26.10495 38861 ft 441 kts 153°
2026-04-16 16:14 36.89016 26.14228 38903 ft 440 kts 153°
2026-04-16 16:15 36.83670 26.17961 38874 ft 441 kts 153°
2026-04-16 16:15 36.78336 26.21680 38873 ft 441 kts 153°
2026-04-16 16:16 36.72997 26.25398 38879 ft 440 kts 153°
2026-04-16 16:16 36.67616 26.29141 38862 ft 441 kts 153°
2026-04-16 16:17 36.62274 26.32846 38867 ft 441 kts 153°
2026-04-16 16:17 36.56953 26.36537 38877 ft 440 kts 153°
2026-04-16 16:18 36.51580 26.40254 38872 ft 439 kts 153°
2026-04-16 16:18 36.46272 26.43923 38876 ft 440 kts 153°
2026-04-16 16:19 36.40911 26.47619 38873 ft 440 kts 153°
2026-04-16 16:19 36.35550 26.51311 38848 ft 441 kts 153°
2026-04-16 16:20 36.30212 26.54981 38858 ft 441 kts 153°
2026-04-16 16:20 36.24818 26.58684 38873 ft 441 kts 153°
2026-04-16 16:21 36.19518 26.62318 38868 ft 438 kts 154°
2026-04-16 16:21 36.14171 26.65974 38860 ft 437 kts 154°
2026-04-16 16:22 36.08876 26.69592 38845 ft 436 kts 154°
2026-04-16 16:22 36.03552 26.73223 38829 ft 438 kts 154°
2026-04-16 16:23 35.98200 26.76866 38826 ft 438 kts 154°
2026-04-16 16:23 35.92869 26.80495 38829 ft 438 kts 155°
2026-04-16 16:24 35.87571 26.84091 38849 ft 435 kts 155°
2026-04-16 16:24 35.82242 26.87702 38841 ft 437 kts 155°
2026-04-16 16:25 35.76923 26.91303 38828 ft 437 kts 155°
2026-04-16 16:25 35.71620 26.94883 38834 ft 438 kts 155°
2026-04-16 16:26 35.66271 26.98496 38832 ft 438 kts 155°
2026-04-16 16:26 35.60953 27.02079 38831 ft 438 kts 155°
2026-04-16 16:27 35.55618 27.05668 38823 ft 437 kts 155°
2026-04-16 16:27 35.50304 27.09238 38830 ft 438 kts 155°
2026-04-16 16:28 35.44965 27.12817 38815 ft 437 kts 155°
2026-04-16 16:28 35.39805 27.16816 38820 ft 444 kts 144°
2026-04-16 16:29 35.35000 27.21599 38819 ft 445 kts 146°
2026-04-16 16:29 35.30165 27.26277 38819 ft 444 kts 146°
2026-04-16 16:30 35.25331 27.30930 38817 ft 444 kts 146°
2026-04-16 16:30 35.20459 27.35616 38808 ft 445 kts 147°
2026-04-16 16:31 35.15604 27.40272 38793 ft 444 kts 146°
2026-04-16 16:31 35.10756 27.44915 38789 ft 445 kts 147°
2026-04-16 16:32 35.05856 27.49604 38776 ft 445 kts 147°
2026-04-16 16:32 35.00993 27.54234 38775 ft 446 kts 147°
2026-04-16 16:33 34.96095 27.58888 38777 ft 447 kts 147°
2026-04-16 16:33 34.91197 27.63533 38776 ft 446 kts 147°
2026-04-16 16:34 34.86294 27.68179 38776 ft 447 kts 148°
2026-04-16 16:34 34.81411 27.72794 38773 ft 447 kts 148°
2026-04-16 16:35 34.76492 27.77437 38769 ft 446 kts 148°
2026-04-16 16:35 34.71595 27.82055 38772 ft 449 kts 148°
2026-04-16 16:36 34.66684 27.86674 38762 ft 448 kts 148°
2026-04-16 16:36 34.61742 27.91322 38775 ft 450 kts 148°
2026-04-16 16:37 34.56819 27.95944 38771 ft 447 kts 148°
2026-04-16 16:37 34.51896 28.00548 38791 ft 449 kts 148°
2026-04-16 16:38 34.46951 28.05172 38785 ft 449 kts 148°
2026-04-16 16:38 34.42016 28.09788 38780 ft 448 kts 148°
2026-04-16 16:39 34.37098 28.14373 38769 ft 449 kts 148°
2026-04-16 16:39 34.32127 28.19002 38762 ft 451 kts 148°
2026-04-16 16:40 34.27191 28.23591 38775 ft 448 kts 148°
2026-04-16 16:40 34.22286 28.28148 38769 ft 447 kts 149°
2026-04-16 16:41 34.17346 28.32722 38760 ft 449 kts 149°
2026-04-16 16:41 34.12374 28.37322 38758 ft 450 kts 148°
2026-04-16 16:42 34.07431 28.41890 38756 ft 450 kts 149°
2026-04-16 16:42 34.02455 28.46482 38748 ft 449 kts 149°
2026-04-16 16:43 33.97516 28.51032 38738 ft 449 kts 149°
2026-04-16 16:43 33.92553 28.55597 38746 ft 451 kts 149°
2026-04-16 16:44 33.87553 28.60192 38734 ft 453 kts 149°
2026-04-16 16:44 33.82564 28.64768 38756 ft 453 kts 149°
2026-04-16 16:45 33.77553 28.69353 38732 ft 451 kts 150°
2026-04-16 16:45 33.72568 28.73912 38731 ft 453 kts 150°
2026-04-16 16:46 33.67815 28.78977 38754 ft 458 kts 144°
2026-04-16 16:46 33.63168 28.84224 38755 ft 463 kts 144°
2026-04-16 16:47 33.58485 28.89480 38739 ft 463 kts 144°
2026-04-16 16:47 33.53779 28.94751 38730 ft 462 kts 145°
2026-04-16 16:48 33.49072 29.00013 38733 ft 462 kts 145°
2026-04-16 16:48 33.44377 29.05251 38736 ft 466 kts 145°
2026-04-16 16:49 33.39627 29.10554 38732 ft 465 kts 145°
2026-04-16 16:49 33.34920 29.15791 38735 ft 465 kts 145°
2026-04-16 16:50 33.30175 29.21055 38731 ft 468 kts 145°
2026-04-16 16:50 33.25409 29.26348 38725 ft 468 kts 146°
2026-04-16 16:51 33.20667 29.31604 38729 ft 468 kts 145°
2026-04-16 16:51 33.15854 29.36921 38730 ft 471 kts 146°
2026-04-16 16:52 33.11064 29.42211 38726 ft 471 kts 146°
2026-04-16 16:52 33.06249 29.47521 38722 ft 471 kts 146°
2026-04-16 16:53 33.01406 29.52850 38711 ft 473 kts 146°
2026-04-16 16:53 32.96597 29.58140 38716 ft 473 kts 146°
2026-04-16 16:54 32.91737 29.63469 38722 ft 474 kts 146°
2026-04-16 16:54 32.86917 29.68756 38779 ft 474 kts 147°
2026-04-16 16:55 32.82034 29.74093 38715 ft 474 kts 146°
2026-04-16 16:55 32.77187 29.79385 38735 ft 477 kts 147°
2026-04-16 16:56 32.72303 29.84711 38715 ft 476 kts 147°
2026-04-16 16:56 32.67442 29.90008 38723 ft 478 kts 146°
2026-04-16 16:57 32.60088 29.97995 38720 ft 478 kts 147°
2026-04-16 16:58 32.55192 30.03308 38723 ft 478 kts 147°
2026-04-16 16:58 32.50275 30.08629 38725 ft 481 kts 146°
2026-04-16 16:59 32.45347 30.13952 38717 ft 478 kts 147°
2026-04-16 16:59 32.40437 30.19242 38721 ft 481 kts 146°
2026-04-16 17:00 32.35485 30.24567 38713 ft 483 kts 146°
2026-04-16 17:00 32.30516 30.29907 38724 ft 482 kts 146°
2026-04-16 17:01 32.25544 30.35236 38723 ft 485 kts 146°
2026-04-16 17:01 32.20546 30.40590 38711 ft 486 kts 146°
2026-04-16 17:02 32.15561 30.45919 38712 ft 484 kts 146°
2026-04-16 17:02 32.10549 30.51271 38725 ft 485 kts 146°
2026-04-16 17:03 32.05575 30.56573 38729 ft 486 kts 146°
2026-04-16 17:03 32.00561 30.61909 38717 ft 486 kts 146°
2026-04-16 17:04 31.95540 30.67247 38702 ft 485 kts 147°
2026-04-16 17:04 31.90508 30.72582 38708 ft 487 kts 146°
2026-04-16 17:05 31.85508 30.77880 38711 ft 487 kts 147°
2026-04-16 17:05 31.80460 30.83220 38709 ft 487 kts 147°
2026-04-16 17:06 31.75446 30.88514 38704 ft 488 kts 147°
2026-04-16 17:06 31.70371 30.93866 38700 ft 488 kts 147°
2026-04-16 17:07 31.65316 30.99185 38693 ft 488 kts 146°
2026-04-16 17:07 31.60286 31.04476 38681 ft 488 kts 147°
2026-04-16 17:08 31.55212 31.09787 38677 ft 487 kts 148°
2026-04-16 17:08 31.52476 31.11948 38662 ft 467 kts 164°
2026-04-16 17:08 31.49457 31.13087 38707 ft 446 kts 180°
2026-04-16 17:09 31.43291 31.14081 38679 ft 448 kts 180°
2026-04-16 17:09 31.37156 31.15205 38688 ft 445 kts 180°
2026-04-16 17:10 31.31033 31.16346 38686 ft 447 kts 180°
2026-04-16 17:10 31.24908 31.17494 38677 ft 446 kts 180°
2026-04-16 17:11 31.18747 31.18643 38679 ft 447 kts 180°
2026-04-16 17:11 31.12611 31.19785 38674 ft 448 kts 180°
2026-04-16 17:12 31.06451 31.20931 38684 ft 447 kts 180°
2026-04-16 17:12 31.00301 31.22076 38662 ft 445 kts 180°
2026-04-16 17:13 30.94160 31.23211 38670 ft 448 kts 180°
2026-04-16 17:13 30.88019 31.24349 38677 ft 448 kts 180°
2026-04-16 17:14 30.81858 31.25492 38671 ft 449 kts 180°
2026-04-16 17:14 30.75686 31.26634 38665 ft 449 kts 180°
2026-04-16 17:15 30.69492 31.27775 38670 ft 451 kts 180°
2026-04-16 17:15 30.63319 31.28915 38687 ft 450 kts 180°
2026-04-16 17:16 30.57091 31.30062 38689 ft 451 kts 180°
2026-04-16 17:16 30.50894 31.31200 38681 ft 453 kts 180°
2026-04-16 17:17 30.44681 31.32344 38691 ft 451 kts 180°
2026-04-16 17:17 30.38447 31.33488 38690 ft 453 kts 180°
2026-04-16 17:18 30.32216 31.34631 38686 ft 452 kts 180°
2026-04-16 17:18 30.25978 31.35775 38696 ft 452 kts 180°
2026-04-16 17:19 30.19752 31.36915 38697 ft 454 kts 180°
2026-04-16 17:19 30.13488 31.38061 38706 ft 453 kts 180°
2026-04-16 17:20 30.07184 31.39431 38706 ft 467 kts 172°
2026-04-16 17:20 30.00963 31.41575 38725 ft 466 kts 173°
2026-04-16 17:21 29.94747 31.43647 38735 ft 466 kts 173°
2026-04-16 17:21 29.88475 31.45725 38742 ft 468 kts 173°
2026-04-16 17:22 29.82250 31.47789 38739 ft 465 kts 173°
2026-04-16 17:22 29.76008 31.49853 38749 ft 465 kts 173°
2026-04-16 17:23 29.69740 31.51921 38766 ft 469 kts 173°
2026-04-16 17:23 29.63480 31.53974 38777 ft 468 kts 173°
2026-04-16 17:24 29.57200 31.56030 38772 ft 468 kts 173°
2026-04-16 17:24 29.50922 31.58079 38798 ft 469 kts 173°
2026-04-16 17:25 29.44646 31.60130 38797 ft 470 kts 172°
2026-04-16 17:25 29.38346 31.62185 38808 ft 470 kts 173°
2026-04-16 17:26 29.32017 31.64245 38797 ft 470 kts 172°
2026-04-16 17:26 29.25732 31.66291 38783 ft 469 kts 173°
2026-04-16 17:27 29.19408 31.68344 38777 ft 470 kts 173°
2026-04-16 17:27 29.13098 31.70390 38785 ft 472 kts 173°
2026-04-16 17:28 29.06755 31.72447 38771 ft 470 kts 173°
2026-04-16 17:28 29.00434 31.74490 38760 ft 473 kts 173°
2026-04-16 17:29 28.94077 31.76528 38771 ft 469 kts 173°
2026-04-16 17:29 28.87750 31.78540 38774 ft 472 kts 173°
2026-04-16 17:30 28.81390 31.80560 38787 ft 474 kts 173°
2026-04-16 17:30 28.75027 31.82582 38784 ft 471 kts 173°
2026-04-16 17:31 28.68712 31.84583 38784 ft 472 kts 173°
2026-04-16 17:31 28.62377 31.86589 38945 ft 469 kts 173°
2026-04-16 17:31 28.59201 31.87590 38822 ft 478 kts 173°
2026-04-16 17:32 28.55988 31.88608 38769 ft 472 kts 173°
2026-04-16 17:32 28.52854 31.89600 38872 ft 472 kts 173°
2026-04-16 17:32 28.49684 31.90598 38795 ft 474 kts 173°
2026-04-16 17:33 28.43300 31.92613 38814 ft 474 kts 173°
2026-04-16 17:33 28.36970 31.94608 38828 ft 472 kts 173°
2026-04-16 17:34 28.30602 31.96610 38821 ft 472 kts 173°
2026-04-16 17:34 28.24267 31.98599 38833 ft 476 kts 173°
2026-04-16 17:35 28.17882 32.00605 38831 ft 475 kts 173°
2026-04-16 17:35 28.11501 32.02604 38852 ft 476 kts 173°
2026-04-16 17:36 28.05089 32.04611 38874 ft 475 kts 173°
2026-04-16 17:36 27.98711 32.06646 38884 ft 469 kts 172°
2026-04-16 17:37 27.92460 32.08644 38881 ft 466 kts 173°
2026-04-16 17:37 27.86153 32.10659 38881 ft 470 kts 172°
2026-04-16 17:38 27.79850 32.12670 38881 ft 470 kts 172°
2026-04-16 17:38 27.73520 32.14689 38864 ft 470 kts 173°
2026-04-16 17:39 27.67178 32.16710 38871 ft 472 kts 173°
2026-04-16 17:39 27.60854 32.18724 38874 ft 471 kts 173°
2026-04-16 17:40 27.54531 32.20732 38495 ft 472 kts 173°
2026-04-16 17:40 27.51350 32.21738 37516 ft 477 kts 172°
2026-04-16 17:40 27.48154 32.22751 36543 ft 480 kts 172°
2026-04-16 17:40 27.44944 32.23768 35744 ft 479 kts 172°
2026-04-16 17:41 27.41715 32.24793 35005 ft 479 kts 172°
2026-04-16 17:41 27.38512 32.25809 34303 ft 478 kts 172°
2026-04-16 17:41 27.35283 32.26830 33634 ft 477 kts 172°
2026-04-16 17:41 27.32062 32.27849 32957 ft 476 kts 171°
2026-04-16 17:42 27.28859 32.28861 32219 ft 477 kts 171°
2026-04-16 17:42 27.25676 32.29866 31413 ft 479 kts 171°
2026-04-16 17:42 27.22479 32.30878 30676 ft 478 kts 171°
2026-04-16 17:42 27.19264 32.31895 30030 ft 476 kts 171°
2026-04-16 17:43 27.16107 32.32888 29441 ft 472 kts 171°
2026-04-16 17:43 27.12926 32.33897 28861 ft 467 kts 171°
2026-04-16 17:43 27.09809 32.34875 28265 ft 464 kts 170°
2026-04-16 17:43 27.06698 32.35857 27637 ft 460 kts 170°
2026-04-16 17:44 27.03634 32.36821 27021 ft 457 kts 170°
2026-04-16 17:44 27.00588 32.37778 26466 ft 451 kts 170°
2026-04-16 17:44 26.97575 32.38729 25941 ft 446 kts 170°
2026-04-16 17:44 26.94619 32.39657 25450 ft 439 kts 170°
2026-04-16 17:45 26.91723 32.40569 24970 ft 433 kts 169°
2026-04-16 17:45 26.88824 32.41477 24474 ft 427 kts 169°
2026-04-16 17:45 26.85974 32.42374 23932 ft 421 kts 170°
2026-04-16 17:45 26.83191 32.43245 23379 ft 416 kts 169°
2026-04-16 17:46 26.80397 32.44118 22803 ft 411 kts 169°
2026-04-16 17:46 26.77661 32.44979 22248 ft 406 kts 169°
2026-04-16 17:46 26.74952 32.45825 21682 ft 401 kts 169°
2026-04-16 17:46 26.72286 32.46659 21146 ft 396 kts 169°
2026-04-16 17:47 26.69667 32.47480 20629 ft 391 kts 169°
2026-04-16 17:47 26.67061 32.48296 20123 ft 385 kts 169°
2026-04-16 17:47 26.64472 32.49105 19621 ft 380 kts 169°
2026-04-16 17:47 26.61970 32.49884 19144 ft 374 kts 169°
2026-04-16 17:48 26.59458 32.50669 18645 ft 369 kts 169°
2026-04-16 17:48 26.57018 32.51433 18175 ft 364 kts 169°
2026-04-16 17:48 26.54576 32.52193 17694 ft 360 kts 168°
2026-04-16 17:48 26.52178 32.52940 17229 ft 357 kts 168°
2026-04-16 17:49 26.49814 32.53678 16762 ft 355 kts 168°
2026-04-16 17:49 26.47407 32.54425 16291 ft 354 kts 168°
2026-04-16 17:49 26.45067 32.55153 15827 ft 351 kts 168°
2026-04-16 17:49 26.42687 32.55896 15351 ft 351 kts 168°
2026-04-16 17:50 26.40367 32.56616 14880 ft 349 kts 168°
2026-04-16 17:50 26.38018 32.57349 14399 ft 348 kts 167°
2026-04-16 17:50 26.35688 32.58071 13915 ft 346 kts 167°
2026-04-16 17:50 26.33396 32.58783 13433 ft 343 kts 167°
2026-04-16 17:51 26.31085 32.59500 12938 ft 341 kts 167°
2026-04-16 17:51 26.28813 32.60208 12452 ft 339 kts 166°
2026-04-16 17:51 26.26548 32.60912 11972 ft 337 kts 166°
2026-04-16 17:51 26.24296 32.61609 11503 ft 334 kts 166°
2026-04-16 17:52 26.22079 32.62298 11050 ft 331 kts 166°
2026-04-16 17:52 26.19860 32.62987 10606 ft 328 kts 166°
2026-04-16 17:52 26.17664 32.63669 10189 ft 325 kts 166°
2026-04-16 17:52 26.15482 32.64343 9808 ft 322 kts 166°
2026-04-16 17:53 26.13365 32.65005 9732 ft 308 kts 166°
2026-04-16 17:53 26.11343 32.65628 9617 ft 296 kts 166°
2026-04-16 17:53 26.09380 32.66238 9517 ft 285 kts 166°
2026-04-16 17:53 26.07514 32.66814 9395 ft 276 kts 166°
2026-04-16 17:54 26.05675 32.67383 9055 ft 276 kts 166°
2026-04-16 17:54 26.03809 32.67958 8771 ft 274 kts 166°
2026-04-16 17:54 26.01969 32.68530 8741 ft 276 kts 167°
2026-04-16 17:54 26.00110 32.69101 8751 ft 278 kts 166°
2026-04-16 17:55 25.98243 32.69679 8738 ft 276 kts 166°
2026-04-16 17:55 25.96402 32.70248 9054 ft 281 kts 166°
2026-04-16 17:55 25.94499 32.70835 8999 ft 280 kts 166°
2026-04-16 17:55 25.92631 32.71411 9017 ft 280 kts 166°
2026-04-16 17:56 25.90759 32.71989 8680 ft 276 kts 166°
2026-04-16 17:56 25.88905 32.72557 7789 ft 282 kts 166°
2026-04-16 17:56 25.85184 32.73705 6491 ft 271 kts 166°
2026-04-16 17:57 25.83402 32.74255 6137 ft 256 kts 165°
2026-04-16 17:57 25.81744 32.74766 5904 ft 240 kts 166°
2026-04-16 17:57 25.80182 32.75249 5727 ft 225 kts 166°
2026-04-16 17:57 25.78726 32.75738 5547 ft 212 kts 154°
2026-04-16 17:58 25.77692 32.76808 5384 ft 202 kts 115°
2026-04-16 17:58 25.77487 32.78280 5273 ft 191 kts 77°
2026-04-16 17:58 25.78109 32.79486 5186 ft 174 kts 46°
2026-04-16 17:58 25.79038 32.80384 4789 ft 180 kts 37°
2026-04-16 17:59 25.80073 32.81192 4462 ft 181 kts 33°
2026-04-16 17:59 25.81124 32.81930 4154 ft 181 kts 31°
2026-04-16 17:59 25.82201 32.82648 4117 ft 181 kts 31°
2026-04-16 17:59 25.83289 32.83370 4037 ft 178 kts 34°
2026-04-16 18:00 25.84425 32.83859 3971 ft 178 kts
2026-04-16 18:00 25.85651 32.83586 3933 ft 179 kts 333°
2026-04-16 18:00 25.86535 32.82640 3876 ft 180 kts 300°
2026-04-16 18:00 25.86814 32.81305 3811 ft 179 kts 265°
2026-04-16 18:01 25.86279 32.80084 3756 ft 178 kts 223°
2026-04-16 18:01 25.85250 32.79301 3704 ft 183 kts 212°
2026-04-16 18:01 25.84181 32.78537 3461 ft 178 kts 212°
2026-04-16 18:01 25.83068 32.77977 3266 ft 170 kts 201°
2026-04-16 18:02 25.82011 32.77501 3002 ft 158 kts 201°
2026-04-16 18:02 25.81021 32.77051 2804 ft 153 kts 201°
2026-04-16 18:02 25.80030 32.76597 2620 ft 153 kts 201°
2026-04-16 18:02 25.79055 32.76147 2428 ft 153 kts 200°
2026-04-16 18:03 25.78074 32.75702 2231 ft 152 kts 201°
2026-04-16 18:03 25.77091 32.75243 2042 ft 153 kts 201°
2026-04-16 18:03 25.76097 32.74799 1852 ft 153 kts 199°
2026-04-16 18:03 25.75117 32.74368 1658 ft 153 kts 201°
2026-04-16 18:04 25.74132 32.73914 1418 ft 153 kts 201°
2026-04-16 18:04 25.73158 32.73446 1256 ft 151 kts 203°
2026-04-16 18:04 25.72188 32.72989 1074 ft 151 kts 202°
2026-04-16 18:04 25.71218 32.72553 882 ft 151 kts 202°
2026-04-16 18:05 25.70253 32.72093 702 ft 149 kts 203°
2026-04-16 18:05 25.69303 32.71658 518 ft 148 kts 202°
2026-04-16 18:05 25.68350 32.71221 347 ft 147 kts 203°
2026-04-16 18:05 25.67477 32.70822 304 ft 113 kts 202°
2026-04-16 18:06 25.66934 32.70573 310 ft 71 kts 203°
2026-04-16 18:06 25.66685 32.70456 312 ft 27 kts 202°
2026-04-16 18:06 25.66530 32.70385 313 ft 12 kts 202°
2026-04-16 18:06 25.66476 32.70341 314 ft 7 kts 248°
2026-04-16 18:07 25.66480 32.70293 313 ft 5 kts 290°
2026-04-16 18:07 25.66499 32.70248 312 ft 15 kts 296°
2026-04-16 18:07 25.66572 32.70222 310 ft 11 kts 27°
2026-04-16 18:07 25.66633 32.70256 310 ft 8 kts 25°
2026-04-16 18:08 25.66681 32.70275 309 ft 9 kts 19°
2026-04-16 18:08 25.66739 32.70307 308 ft 8 kts 24°
2026-04-16 18:08 25.66784 32.70325 308 ft 5 kts 20°
2026-04-16 18:08 25.66814 32.70338 307 ft 8 kts 20°
2026-04-16 18:09 25.66902 32.70375 306 ft 15 kts 21°
2026-04-16 18:09 25.66958 32.70394 306 ft 5 kts 352°
2026-04-16 18:09 25.66984 32.70374 305 ft 4 kts 315°
2026-04-16 18:09 25.67018 32.70311 303 ft 11 kts 289°
2026-04-16 18:10 25.67047 32.70245 303 ft 8 kts 297°
2026-04-16 18:10 25.67069 32.70198 302 ft 5 kts 298°
2026-04-16 18:10 25.67097 32.70176 302 ft 9 kts 344°
2026-04-16 18:10 25.67173 32.70198 300 ft 11 kts 22°
2026-04-16 18:11 25.67237 32.70227 299 ft 8 kts
2026-04-16 18:11 25.67279 32.70204 298 ft 5 kts 317°
2026-04-16 18:11 25.67308 32.70174 298 ft 7 kts 310°
2026-04-16 18:11 25.67327 32.70141 298 ft 0 kts 297°